Simultaneous Nadir Overpasses (SNOs) Predictions

Prediction of SNOs between LANDSAT-8 and METOP-A Satellite Orbit:

Table of predicted SNOs for the next 14.0 days since TLE Epoch: 3/9/2019
Index Date (LANDSAT-8) Time (LANDSAT-8) Lat,Lon (LANDSAT-8) SZA (LANDSAT-8 ) Date (METOP-A) Time (METOP-A) Lat,Lon (METOP-A) SZA (METOP-A ) Distance(km) Time Diff (sec)
1 03/10/2019 06:47:32 -81.44, -56.72 92.16 03/10/2019 06:46:48 -81.45, -56.81 92.19 1.58 44
2 03/10/2019 07:36:58 81.44, 111.01 87.84 03/10/2019 07:37:28 81.45, 110.93 87.85 1.43 30
3 03/13/2019 02:21:46 -81.44, 9.77 93.24 03/13/2019 02:21:02 -81.45, 9.63 93.27 2.34 44
4 03/13/2019 03:11:12 81.45, 177.48 86.76 03/13/2019 03:11:42 81.45, 177.33 86.76 2.43 30
5 03/15/2019 21:56:00 -81.44, 76.23 94.32 03/15/2019 21:55:16 -81.45, 76.05 94.36 2.91 44
6 03/15/2019 22:45:26 81.45,-116.09 85.68 03/15/2019 22:45:56 81.45,-116.28 85.67 3.28 30
7 03/18/2019 17:30:14 -81.44, 142.66 95.41 03/18/2019 17:29:30 -81.45, 142.46 95.45 3.25 44
8 03/18/2019 18:19:40 81.44, -49.68 84.59 03/18/2019 18:20:09 81.45, -49.51 84.62 2.81 29
9 03/21/2019 13:04:27 -81.44,-150.95 96.50 03/21/2019 13:03:43 -81.45,-151.14 96.54 3.34 44




NCC Satellite Simultaneous Nadir Overpasses (SNOs) Prediction Service
